STARLINK-4255, 53003

Orbit data source: Space-Track

STARLINK-4255, 53003 is a payload satellite owned by SpaceX/Seattle (US) in LEO that was launched on Thu, 07 Jul 2022 UTC via an FALCON 9 launch vehicle from the Air Force Eastern Test Range (AFETR). Payload-class satellites include a variety of spacecraft equipped with specific instruments for various scientific and technological missions. These include communications satellites like Starlink; space stations such as the ISS; scientific satellites like the Hubble; Earth observation satellites from companies like Planet Labs, Umbra, and HawkEye 360; GPS; miniature CubeSats for education and research; and military/defense satellites.

Loading next visibility...
Identifier
53003, 2022-076T
Orbit
LEO
Country
Flag of USUS
Related business
Manufacturer
SpaceX/Seattle
Mission
Operational Commercial Communications
Bus & Motor
STARLINK, Unknown motor
Mass
297 kg wet, ~275 kg dry
Launch date (UTC)
2022-07-07 (3 years ago)
Launch vehicle
FALCON 9
Launch site
Air Force Eastern Test Range (AFETR)
Object type
Payload
Rocket body
Debris
Shape & HBR
Box + 1 Pan, 10.1 m
Radar Cross Section
13.562 m², Large (>1 m²)

Expand to show TLE details & history
Last TLE update: 14 hours ago

TLE from 14 hours ago
0 STARLINK-4255
1 53003U 22076T   25340.86128366  .00001569  00000-0  11664-3 0  9994
2 53003  53.2174 150.8416 0001342  76.6943 283.4198 15.08843433188837
Epoch: 2025-12-06T20:40Z
TLE epoch observation values (Epoch: 2025-12-06T20:40:14.908Z)
Latitude
-0.00007°
Longitude
124.89648°
Altitude
540.415 km
Speed
7.593 km/s
True Right ascension
10h 03m 21s
True Declination
0° 00' 00"
Sunlit
Object was in daylight at epoch
Visualization orbit readout
Latitude
Unknown
Longitude
Unknown
Altitude
Unknown
Speed
Unknown
Apparent Right ascension
Unknown
Apparent Declination
Unknown
Sunlit
N/A
Visualization observer readout
Local Sidereal Time
08:31:38
Azimuth
Unknown
Elevation
Unknown
Doppler factor
Unknown
Orbital elements
Apogee altitude
540.906 km
Perigee altitude
539.049 km
Semi-major axis
6,918.115 km
Eccentricity
0.00013
Inclination
53.2174°
RAAN
150.8416°
Arg. of periapsis
76.6943°
True anomaly
283.40484°
Mean anomaly
283.4198°
Eccentric anomaly
283.41232°
Mean motion
3.77191 °/min
Orbital period
95.44 mins
BSTAR
0.00011664
Loading maneuver chart data...
Computing Atmospheric mass density...
Loading historical data...
Loading historical data...
Loading historical data...
Loading historical data...
Loading historical data...
Loading historical data...
Loading historical data...

Documentation

Showing up to 5 results
|